JH1LWU-13 Weather Reports


Display with metric or nautical units.
time (UTC)temp
F
wind
direction
speed
MPH
gust
MPH
rain 1hr
in
rain 24hr
in
rain mn
in
humidity
%
barometer
mb
20260504193417 55 356 0.0 1.0 0.00 0.00 0.00 41 1010.0
20260504190416 55 124 2.0 6.0 0.00 0.00 0.00 40 1010.0
20260504183415 55 297 0.0 3.0 0.00 0.00 0.00 41 1011.0
20260504180414 55 215 0.0 3.0 0.00 0.00 0.00 40 1009.0
20260504173413 55 253 2.0 5.0 0.00 0.00 0.00 39 1008.0
20260504170412 56 174 3.0 6.0 0.00 0.00 0.00 39 1010.0
20260504160410 57 93 6.0 6.0 0.00 0.00 0.00 38 1007.0
20260504150408 59 141 1.0 3.0 0.00 0.00 0.00 38 1007.0
20260504140406 61 354 2.0 2.0 0.00 0.00 0.00 38 1004.0
20260504130404 64 141 1.0 4.0 0.00 0.00 0.00 37 1003.0
20260504110400 67 224 2.0 4.0 0.00 0.00 0.00 55 999.0
20260504100358 72 231 0.0 0.0 0.00 0.00 0.00 46 998.0
20260504080354 74 72 3.0 4.0 0.00 0.00 0.00 35 993.0
20260504070352 74 267 3.0 5.0 0.00 0.00 0.00 45 993.0
20260504050348 76 339 5.0 7.0 0.00 0.00 0.00 50 991.0
20260504043347 76 73 4.0 5.0 0.00 0.00 0.00 51 991.0
20260504040346 76 94 4.0 6.0 0.00 0.00 0.00 51 991.0
20260504033345 77 257 3.0 7.0 0.00 0.00 0.00 50 994.0
20260504030344 77 345 3.0 7.0 0.00 0.00 0.00 50 992.0
20260504023343 76 62 6.0 8.0 0.00 0.00 0.00 54 991.0
20260504020342 78 165 3.0 5.0 0.00 0.00 0.00 53 993.0
20260504013341 77 96 1.0 2.0 0.00 0.00 0.00 56 993.0
20260504010340 75 82 0.0 2.0 0.00 0.00 0.00 59 993.0
20260504003339 72 333 3.0 3.0 0.00 0.00 0.00 64 993.0
20260504000338 70 170 1.0 5.0 0.00 0.00 0.00 67 994.0
20260503233337 66 342 0.0 3.0 0.00 0.00 0.00 76 994.0
20260503230336 66 222 0.0 3.0 0.00 0.00 0.00 74 995.0
20260503223335 70 38 3.0 5.0 0.00 0.00 0.00 77 993.0
20260503220334 70 128 3.0 5.0 0.00 0.00 0.00 78 994.0
20260503213333 69 24 2.0 6.0 0.00 0.00 0.00 80 994.0
20260503210332 68 224 3.0 7.0 0.00 0.00 0.00 81 991.0
20260503203331 66 131 4.0 6.0 0.00 0.00 0.00 82 993.0
20260503200330 67 117 3.0 6.0 0.00 0.00 0.00 80 993.0